When you browse on this site, cookies collect data to enhance your experience and personalize the content and advertising you see.
Visit our Privacy Policy to learn more. By continuing to use the site, you agree to this use of cookies and data.
  • In United Kingdom
  • List of Countries
  • For 7 days
  • Water Temperature
  • Weather Map
  • Weather Widgets
  • user-avatar
    Login

    Hourly Weather Kavarna

    Today, 28 January, Tuesday

    Time Temperature Precipitation Wind Pressure Humidity
    00:00 +7°C° 1.8 mm 5 mps 758 mmHg 93%
    01:00 +7°C° 1.8 mm 5 mps 758 mmHg 89%
    02:00 +5°C° 0 mm 6 mps 758 mmHg 80%
    03:00 +5°C° 1.1 mm 6 mps 758 mmHg 80%
    04:00 +5°C° 1.1 mm 6 mps 758 mmHg 81%
    05:00 +5°C° 1.1 mm 7 mps 758 mmHg 81%
    06:00 +5°C° 0.3 mm 7 mps 758 mmHg 82%
    07:00 +4°C° 0.3 mm 7 mps 758 mmHg 83%
    08:00 +4°C° 0.3 mm 8 mps 758 mmHg 84%
    09:00 +5°C° 0.1 mm 7 mps 758 mmHg 83%
    10:00 +5°C° 0.1 mm 6 mps 758 mmHg 81%
    11:00 +6°C° 0.1 mm 5 mps 758 mmHg 79%
    12:00 +7°C° 0 mm 5 mps 758 mmHg 78%
    13:00 +8°C° 0 mm 4 mps 758 mmHg 76%
    14:00 +8°C° 0 mm 4 mps 757 mmHg 74%
    15:00 +9°C° 0 mm 3 mps 757 mmHg 75%
    16:00 +9°C° 0 mm 3 mps 757 mmHg 76%
    17:00 +9°C° 0 mm 3 mps 757 mmHg 77%
    18:00 +8°C° 0 mm 3 mps 757 mmHg 79%
    19:00 +8°C° 0 mm 3 mps 757 mmHg 80%
    20:00 +6°C° 0 mm 4 mps 758 mmHg 82%
    21:00 +6°C° 0 mm 4 mps 757 mmHg 81%
    22:00 +6°C° 0 mm 5 mps 757 mmHg 81%
    23:00 +6°C° 0 mm 5 mps 757 mmHg 80%

    Tomorrow, 29 January, Wednesday

    Time Temperature Precipitation Wind Pressure Humidity
    00:00 +6°C° 0 mm 5 mps 757 mmHg 79%
    01:00 +6°C° 0 mm 5 mps 756 mmHg 78%
    02:00 +6°C° 0 mm 5 mps 756 mmHg 77%
    03:00 +5°C° 0 mm 6 mps 755 mmHg 79%
    04:00 +5°C° 0 mm 6 mps 755 mmHg 81%
    05:00 +5°C° 0 mm 6 mps 755 mmHg 83%
    06:00 +5°C° 0 mm 7 mps 754 mmHg 83%
    07:00 +5°C° 0 mm 7 mps 754 mmHg 82%
    08:00 +5°C° 0 mm 7 mps 754 mmHg 82%
    09:00 +6°C° 0 mm 7 mps 754 mmHg 80%
    10:00 +8°C° 0 mm 7 mps 754 mmHg 78%
    11:00 +9°C° 0 mm 7 mps 754 mmHg 75%
    12:00 +9°C° 0 mm 7 mps 754 mmHg 74%
    13:00 +9°C° 0 mm 7 mps 754 mmHg 72%
    14:00 +9°C° 0 mm 7 mps 754 mmHg 70%
    15:00 +9°C° 0 mm 6 mps 755 mmHg 70%
    16:00 +8°C° 0 mm 5 mps 755 mmHg 69%
    17:00 +8°C° 0 mm 4 mps 755 mmHg 69%
    18:00 +7°C° 0 mm 4 mps 756 mmHg 69%
    19:00 +6°C° 0 mm 4 mps 756 mmHg 70%
    20:00 +6°C° 0 mm 4 mps 757 mmHg 70%
    21:00 +5°C° 0 mm 4 mps 757 mmHg 69%
    22:00 +5°C° 0 mm 4 mps 758 mmHg 68%
    23:00 +5°C° 0 mm 4 mps 758 mmHg 67%

    Day after tomorrow, 30 January, Thursday

    Time Temperature Precipitation Wind Pressure Humidity
    00:00 +4°C° 0 mm 4 mps 758 mmHg 67%
    01:00 +4°C° 0 mm 3 mps 758 mmHg 67%
    02:00 +4°C° 0 mm 3 mps 758 mmHg 66%
    03:00 +4°C° 0 mm 3 mps 758 mmHg 66%
    04:00 +4°C° 0 mm 3 mps 758 mmHg 66%
    05:00 +4°C° 0 mm 3 mps 758 mmHg 66%
    06:00 +4°C° 0 mm 3 mps 759 mmHg 67%
    07:00 +4°C° 0 mm 4 mps 759 mmHg 67%
    08:00 +3°C° 0 mm 5 mps 759 mmHg 68%
    09:00 +3°C° 0 mm 5 mps 760 mmHg 65%
    10:00 +4°C° 0 mm 6 mps 760 mmHg 62%
    11:00 +5°C° 0 mm 7 mps 760 mmHg 60%
    12:00 +5°C° 0 mm 7 mps 760 mmHg 55%
    13:00 +6°C° 0 mm 7 mps 760 mmHg 50%
    14:00 +8°C° 0 mm 7 mps 759 mmHg 45%
    15:00 +7°C° 0 mm 6 mps 760 mmHg 48%
    16:00 +6°C° 0 mm 5 mps 760 mmHg 50%
    17:00 +6°C° 0 mm 4 mps 760 mmHg 52%
    18:00 +5°C° 0 mm 4 mps 760 mmHg 53%
    19:00 +4°C° 0 mm 4 mps 761 mmHg 55%
    20:00 +4°C° 0 mm 4 mps 761 mmHg 57%
    21:00 +3°C° 0 mm 5 mps 761 mmHg 58%
    22:00 +2°C° 0 mm 6 mps 762 mmHg 60%
    23:00 +2°C° 0 mm 7 mps 762 mmHg 62%

    31 January, Friday

    Time Temperature Precipitation Wind Pressure Humidity
    00:00 +2°C° 0 mm 6 mps 762 mmHg 63%
    01:00 +1°C° 0 mm 6 mps 762 mmHg 64%
    02:00 +1°C° 0 mm 6 mps 762 mmHg 66%
    03:00 +1°C° 0 mm 6 mps 762 mmHg 67%
    04:00 +1°C° 0 mm 6 mps 762 mmHg 69%
    05:00 +1°C° 0 mm 6 mps 762 mmHg 70%
    06:00 +1°C° 0 mm 6 mps 762 mmHg 70%
    07:00 +1°C° 0 mm 6 mps 762 mmHg 70%
    08:00 +1°C° 0 mm 6 mps 762 mmHg 69%
    09:00 +2°C° 0 mm 6 mps 761 mmHg 61%
    10:00 +4°C° 0 mm 6 mps 761 mmHg 53%
    11:00 +6°C° 0 mm 7 mps 761 mmHg 45%
    12:00 +6°C° 0 mm 7 mps 760 mmHg 44%
    13:00 +8°C° 0 mm 7 mps 760 mmHg 44%
    14:00 +8°C° 0 mm 7 mps 759 mmHg 43%
    15:00 +8°C° 0 mm 7 mps 758 mmHg 46%
    16:00 +8°C° 0 mm 6 mps 758 mmHg 48%
    17:00 +7°C° 0 mm 5 mps 757 mmHg 51%
    18:00 +7°C° 0 mm 6 mps 757 mmHg 51%
    19:00 +6°C° 0 mm 7 mps 757 mmHg 50%
    20:00 +5°C° 0 mm 7 mps 757 mmHg 50%
    21:00 +5°C° 0 mm 7 mps 756 mmHg 55%
    22:00 +5°C° 0 mm 7 mps 756 mmHg 60%
    23:00 +5°C° 0 mm 6 mps 756 mmHg 65%

    1 February, Saturday

    Time Temperature Precipitation Wind Pressure Humidity
    00:00 +5°C° 0 mm 6 mps 756 mmHg 68%
    01:00 +5°C° 0 mm 6 mps 756 mmHg 72%
    02:00 +7°C° 0 mm 6 mps 756 mmHg 75%
    03:00 +7°C° 0 mm 6 mps 757 mmHg 76%
    04:00 +7°C° 0 mm 6 mps 757 mmHg 76%
    05:00 +6°C° 0 mm 7 mps 757 mmHg 77%
    06:00 +6°C° 0 mm 7 mps 757 mmHg 79%
    07:00 +7°C° 0 mm 6 mps 758 mmHg 81%
    08:00 +7°C° 0 mm 6 mps 759 mmHg 83%
    09:00 +8°C° 0 mm 5 mps 759 mmHg 78%
    10:00 +9°C° 0 mm 5 mps 759 mmHg 74%
    11:00 +11°C° 0 mm 4 mps 760 mmHg 69%
    12:00 +12°C° 0 mm 3 mps 760 mmHg 64%
    13:00 +13°C° 0 mm 3 mps 760 mmHg 60%
    14:00 +14°C° 0 mm 2 mps 760 mmHg 55%
    15:00 +13°C° 0 mm 2 mps 760 mmHg 60%
    16:00 +11°C° 0 mm 3 mps 760 mmHg 66%
    17:00 +11°C° 0 mm 3 mps 760 mmHg 71%
    18:00 +10°C° 0 mm 3 mps 760 mmHg 73%
    19:00 +10°C° 0 mm 3 mps 760 mmHg 74%
    20:00 +8°C° 0 mm 4 mps 761 mmHg 76%
    21:00 +8°C° 0 mm 4 mps 760 mmHg 77%
    22:00 +8°C° 0 mm 4 mps 760 mmHg 77%
    23:00 +8°C° 0 mm 5 mps 760 mmHg 78%

    2 February, Sunday

    Time Temperature Precipitation Wind Pressure Humidity
    00:00 +8°C° 0 mm 4 mps 760 mmHg 77%
    01:00 +8°C° 0 mm 4 mps 760 mmHg 76%
    02:00 +8°C° 0 mm 4 mps 760 mmHg 76%
    03:00 +8°C° 0 mm 4 mps 759 mmHg 75%
    04:00 +8°C° 0 mm 4 mps 759 mmHg 75%
    05:00 +8°C° 0 mm 4 mps 759 mmHg 75%
    06:00 +8°C° 0 mm 4 mps 759 mmHg 74%
    07:00 +8°C° 0 mm 4 mps 759 mmHg 73%
    08:00 +8°C° 0 mm 4 mps 759 mmHg 71%
    09:00 +10°C° 0 mm 5 mps 759 mmHg 66%
    10:00 +12°C° 0 mm 5 mps 759 mmHg 60%
    11:00 +14°C° 0 mm 5 mps 759 mmHg 55%
    12:00 +14°C° 0 mm 6 mps 759 mmHg 57%
    13:00 +14°C° 0 mm 7 mps 759 mmHg 60%
    14:00 +12°C° 0 mm 7 mps 758 mmHg 62%
    15:00 +12°C° 0 mm 7 mps 759 mmHg 64%
    16:00 +11°C° 0 mm 8 mps 759 mmHg 65%
    17:00 +10°C° 0 mm 8 mps 759 mmHg 66%
    18:00 +10°C° 0.1 mm 6 mps 760 mmHg 69%
    19:00 +9°C° 0.1 mm 5 mps 760 mmHg 71%
    20:00 +10°C° 0.1 mm 4 mps 761 mmHg 74%
    21:00 +8°C° 0 mm 4 mps 761 mmHg 76%
    22:00 +8°C° 0 mm 5 mps 762 mmHg 78%
    23:00 +7°C° 0 mm 5 mps 762 mmHg 79%
    Show more